Simultaneous Nadir Overpasses (SNOs) Predictions

Prediction of SNOs between GOES-17 and AQUA Satellite Orbit:

Table of predicted SNOs for the next 14.0 days since TLE Epoch: 6/29/2020
Index Date Time (GOES-17) GOES-17 Lat,Lon AQUA Lat,Lon Distance(km) Time Diff (sec)
1 06/29/2020 10:42:57 0.03,-137.20 -0.01,-137.15 7.02 80
2 07/01/2020 10:30:45 0.02,-137.20 -0.63,-134.19 342.94 80
3 07/01/2020 22:54:48 -0.01,-137.20 -0.46,-139.38 247.76 80
4 07/03/2020 22:39:57 0.00,-137.19 0.16,-136.42 87.84 80
5 07/04/2020 11:03:52 -0.00,-137.20 0.93,-141.58 498.28 80
6 07/05/2020 22:30:25 0.01,-137.18 0.78,-133.46 423.10 80
7 07/06/2020 10:51:40 -0.01,-137.19 0.31,-138.62 163.11 80
8 07/08/2020 10:36:48 -0.01,-137.17 -0.32,-135.66 172.02 80
9 07/08/2020 22:58:12 0.01,-137.16 -0.76,-140.85 418.99 80
10 07/10/2020 22:46:00 0.01,-137.15 -0.13,-137.89 84.11 80
11 07/12/2020 22:36:28 0.01,-137.13 0.51,-134.93 250.48 80
